Fulton, NY

12:23 PM EST on February 08, 2016 (GMT -0500)
Oswego County

Weather History for KFZY - May, 2013

Change the Weather History Date:

Friday, May 24, 2013

  Actual Average (KSYR) Record (KSYR)
Temperature  
Mean Temperature 42 °F 60 °F  
Max Temperature 48 °F 71 °F 89 °F (1964)
Min Temperature 39 °F 49 °F 30 °F (1963)
Degree Days  
Heating Degree Days 22 6  
Month to date heating degree days 218  
Since 1 July heating degree days 6553  
Cooling Degree Days 0 1  
Month to date cooling degree days 14  
Year to date cooling degree days 18  
Moisture  
Dew Point 39 °F    
Average Humidity 86    
Maximum Humidity 93    
Minimum Humidity 63    
Precipitation  
Precipitation 0.22 in 0.11 in 1.36 in (2003)
Month to date precipitation 2.47  
Year to date precipitation 13.18  
Snow  
Snow 0.00 in 0.00 in T in (2013)
Month to date snowfall 0.1  
Since 1 July snowfall 123.8  
Snow Depth -    
Sea Level Pressure  
Sea Level Pressure 30.03 in    
Wind  
Wind Speed 12 mph (NNW)    
Max Wind Speed 18 mph    
Max Gust Speed 25 mph    
Visibility 6 miles    
Events Rain    
T = Trace of Precipitation, MM = Missing Value Source: NWS Daily Summary

Daily Weather History Graph

Daily Weather History Graph

Search for Another Location

Airport or City:

Trip Planner

Search our weather history database for the weather conditions in past years. The results will help you decide how hot, cold, wet, or windy it might be!

Date:

Astronomy

May. 24, 2013 Rise Set
Actual Time 5:32 AM EDT 8:32 PM EDT
Civil Twilight 4:58 AM EDT 9:06 PM EDT
Nautical Twilight 4:15 AM EDT 9:50 PM EDT
Astronomical Twilight 3:24 AM EDT 10:41 PM EDT
Moon 8:11 PM EDT (5/24) 5:04 AM EDT (5/24)
Length of Visible Light 16h 07m
Length of Day
14h 59m
Full, 100% of the Moon is Illuminated
May 24
Full
May 25
Full
May 31
Last Quarter
Jun 8
New
Jun 16
First Quarter

Hourly Weather History & Observations

Time (EDT) Temp. Windchill Dew Point Humidity Pressure Visibility Wind Dir Wind Speed Gust Speed Precip Events Conditions
12:54 AM 46.9 °F - 44.1 °F 90% 29.82 in 10.0 mi NNW 15.0 mph - 0.00 in   Overcast
1:54 AM 45.0 °F 38.2 °F 43.0 °F 93% 29.84 in 4.0 mi NNW 15.0 mph 23.0 mph 0.05 in Rain Rain
2:54 AM 44.1 °F 37.4 °F 41.0 °F 89% 29.86 in 4.0 mi NW 13.8 mph 23.0 mph 0.03 in Rain Light Rain
3:54 AM 43.0 °F 36.4 °F 41.0 °F 93% 29.87 in 5.0 mi NNW 12.7 mph 21.9 mph 0.00 in Rain Light Rain
4:54 AM 43.0 °F 36.8 °F 39.9 °F 89% 29.89 in 4.0 mi NNW 11.5 mph 21.9 mph 0.01 in Rain Light Rain
5:54 AM 43.0 °F 37.7 °F 41.0 °F 93% 29.92 in 3.0 mi NNW 9.2 mph - 0.02 in Rain Light Rain
6:01 AM 42.8 °F 37.0 °F 39.2 °F 87% 29.92 in 1.8 mi NNW 10.4 mph - 0.00 in Rain Light Rain
6:11 AM 42.8 °F 37.5 °F 41.0 °F 93% 29.93 in 2.5 mi NNW 9.2 mph - 0.00 in Rain Light Rain
6:23 AM 42.8 °F 36.2 °F 41.0 °F 93% 29.93 in 1.8 mi NW 12.7 mph 18.4 mph 0.01 in Rain Light Rain
6:54 AM 42.1 °F 35.2 °F 39.9 °F 92% 29.95 in 1.5 mi NNW 12.7 mph 23.0 mph 0.02 in Rain Light Rain
7:35 AM 41.0 °F 33.9 °F 39.2 °F 93% 29.96 in 2.0 mi NNW 12.7 mph 20.7 mph 0.01 in Rain Light Rain
7:54 AM 41.0 °F 33.9 °F 39.0 °F 93% 29.98 in 2.0 mi NNW 12.7 mph 21.9 mph 0.02 in Rain Light Rain
8:30 AM 41.0 °F 33.5 °F 37.4 °F 87% 29.99 in 1.8 mi NNW 13.8 mph 20.7 mph 0.01 in Rain Light Rain
8:54 AM 39.9 °F 31.4 °F 37.9 °F 93% 30.01 in 1.5 mi NW 16.1 mph 24.2 mph 0.01 in Rain Light Rain
9:18 AM 39.2 °F 31.2 °F 37.4 °F 93% 30.01 in 2.5 mi NNW 13.8 mph 19.6 mph 0.01 in Rain Light Rain
9:35 AM 41.0 °F 33.9 °F 37.4 °F 87% 30.02 in 5.0 mi NNW 12.7 mph 25.3 mph 0.01 in Rain Light Rain
9:54 AM 41.0 °F 34.7 °F 37.0 °F 86% 30.04 in 9.0 mi NNW 10.4 mph 20.7 mph 0.01 in Rain Light Rain
10:54 AM 41.0 °F 33.5 °F 37.0 °F 86% 30.06 in 2.5 mi NNW 13.8 mph 20.7 mph 0.00 in Rain Light Rain
11:27 AM 39.2 °F 31.6 °F 37.4 °F 93% 30.06 in 2.5 mi NNW 12.7 mph 20.7 mph 0.01 in Rain Light Rain
11:54 AM 41.0 °F 34.3 °F 37.0 °F 86% 30.07 in 2.5 mi NNW 11.5 mph 21.9 mph 0.01 in Rain Light Rain
12:14 PM 41.0 °F 33.1 °F 37.4 °F 87% 30.08 in 3.0 mi NNW 15.0 mph 23.0 mph 0.01 in Rain Light Rain
12:44 PM 42.8 °F 34.5 °F 37.4 °F 81% 30.07 in 7.0 mi NNW 18.4 mph 25.3 mph 0.02 in Rain Light Rain
12:54 PM 43.0 °F 35.7 °F 37.9 °F 82% 30.08 in 9.0 mi North 15.0 mph 21.9 mph 0.02 in Rain Light Rain
1:01 PM 42.8 °F 36.6 °F 39.2 °F 87% 30.08 in 9.0 mi NNW 11.5 mph 21.9 mph 0.00 in Rain Light Rain
1:27 PM 42.8 °F 35.8 °F 39.2 °F 87% 30.09 in 4.0 mi NNW 13.8 mph 21.9 mph 0.01 in Rain Light Rain
1:54 PM 43.0 °F 36.4 °F 39.9 °F 89% 30.10 in 7.0 mi North 12.7 mph 19.6 mph 0.01 in Rain Light Rain
2:03 PM 42.8 °F 34.8 °F 39.2 °F 87% 30.09 in 5.0 mi NNW 17.3 mph 24.2 mph 0.01 in Rain Light Rain
2:54 PM 44.1 °F 37.7 °F 39.9 °F 85% 30.10 in 10.0 mi NNW 12.7 mph 21.9 mph 0.01 in Rain Light Rain
3:14 PM 44.6 °F 39.2 °F 39.2 °F 81% 30.10 in 10.0 mi NNW 10.4 mph 25.3 mph 0.00 in Rain Light Rain
3:30 PM 44.6 °F 38.8 °F 39.2 °F 81% 30.10 in 10.0 mi NNW 11.5 mph 18.4 mph 0.00 in Rain Light Rain
3:37 PM 44.6 °F 39.7 °F 39.2 °F 81% 30.10 in 10.0 mi NNW 9.2 mph 19.6 mph 0.00 in   Overcast
3:54 PM 44.1 °F 38.6 °F 37.9 °F 79% 30.12 in 10.0 mi NNW 10.4 mph 20.7 mph 0.00 in   Overcast
4:54 PM 44.1 °F 39.5 °F 37.9 °F 79% 30.12 in 10.0 mi NW 8.1 mph - 0.00 in Rain Light Rain
5:14 PM 44.6 °F 40.7 °F 37.4 °F 76% 30.11 in 10.0 mi NNW 6.9 mph - 0.00 in   Overcast
5:54 PM 45.0 °F 41.2 °F 39.0 °F 80% 30.12 in 10.0 mi WNW 6.9 mph - 0.00 in   Overcast
6:54 PM 45.0 °F 41.8 °F 39.0 °F 80% 30.12 in 10.0 mi West 5.8 mph - N/A   Overcast
7:54 PM 45.0 °F 42.6 °F 37.9 °F 76% 30.13 in 10.0 mi WNW 4.6 mph - N/A   Overcast
8:54 PM 45.0 °F 41.8 °F 39.0 °F 80% 30.12 in 10.0 mi West 5.8 mph - N/A   Overcast
9:54 PM 45.0 °F 42.6 °F 39.9 °F 82% 30.14 in 10.0 mi WNW 4.6 mph - N/A   Overcast
10:54 PM 46.9 °F - 39.0 °F 74% 30.13 in 10.0 mi NW 8.1 mph - N/A   Overcast
11:54 PM 46.9 °F - 35.1 °F 63% 30.13 in 10.0 mi NNW 9.2 mph - N/A   Overcast